Regional Weather Roundup
Issued by NWS Cleveland, OH

Home | Current Version | Previous Version | Graphics & Text | Print | Product List | Glossary On
Versions: 1 2 3 4 5 6 7 8 9 10 11 12 13 14 15 16 17 18 19 20 21 22 23 24 25 26 27 28 29 30 31 32 33 34 35 36 37 38 39 40 41 42 43 44 45 46 47 48 49 50
000
ASUS41 KCLE 061600
RWRCLE
OHIO REGIONAL WEATHER ROUNDUP
NATIONAL WEATHER SERVICE WILMINGTON, OH
1200 PM EDT WED MAY 06 2015

NOTE: "FAIR" INDICATES FEW OR NO CLOUDS BELOW 12,000 FEET WITH NO
SIGNIFICANT WEATHER AND/OR OBSTRUCTIONS TO VISIBILITY.

OHZ001>008-015>018-024>027-034-035-043-044-061700-
   NORTHWEST OHIO

CITY           SKY/WX    TMP DP  RH WIND       PRES   REMARKS
DEFIANCE       CLOUDY    58  55  90 E3        30.24F FOG
FINDLAY        PTSUNNY   65  56  72 VRB3      30.23S HAZE
TOLEDO EXPRESS CLOUDY    56  53  90 E5        30.25S FOG
TOLEDO EXEC    CLOUDY    55  52  89 E7        30.26F FOG
LIMA           MOSUNNY   69  60  73 VRB3      30.23S
$$

OHZ009>014-019>023-028>033-038-089-061700-
   NORTHEAST OHIO

CITY           SKY/WX    TMP DP  RH WIND       PRES   REMARKS
CLE-HOPKINS    PTSUNNY   63  58  83 N7        30.25S
CLE-LAKEFRONT  FOG       53  50  89 N6        30.24R VSB 1
CUY CO. ARPT   PTSUNNY   70  63  78 NE7       30.24S HAZE
LORAIN-ELYRIA  PTSUNNY   63  57  81 N3        30.24S
ASHTABULA      CLOUDY    63  59  87 NW3       30.25S
AKRON-CANTON   PTSUNNY   72  60  66 VRB5      30.23S HAZE
WOOSTER        NOT AVBL
MANSFIELD      MOSUNNY   74  62  66 VRB7      30.23S
YOUNGSTOWN     CLOUDY    73  58  59 S5        30.22F
$$

OHZ042-051>053-060>062-070>072-077>081-061700-
  SOUTHWEST OHIO

CITY           SKY/WX    TMP DP  RH WIND       PRES   REMARKS
CINC-COVINGTON MOSUNNY   81  54  39 W6        30.22S
CINC-LUNKEN    SUNNY     80  59  48 W3        30.21S
HAMILTON       SUNNY     82  56  40 VRB5      30.22S
DAYTON         NOT AVBL
WRIGHT-PAT AFB NOT AVBL
DAYTON GENERAL SUNNY     80  55  42 NW5       30.22S
WILMINGTON     SUNNY     81  53  37 N6        30.22S
$$

OHZ036-037-039>041-045>050-054>059-063>069-073>076-082>088-061700-
  CENTRAL AND SOUTHEAST OHIO

CITY           SKY/WX    TMP DP  RH WIND       PRES   REMARKS
COLUMBUS       MOSUNNY   79  57  46 W5        30.21S
OSU AIRPORT    SUNNY     80  55  42 VRB6      30.22S
BOLTON FIELD   SUNNY     79  59  50 NW3       30.22F
RICKENBACK AFB NOT AVBL
NEWARK         SUNNY     79  59  50 W6        30.21S
MARION         PTSUNNY   73  58  59 W5        30.23S
LANCASTER      SUNNY     82  55  39 VRB7      30.22S
ZANESVILLE     SUNNY     78  57  48 NW6       30.22S
NEW PHILLY     SUNNY     75  62  64 CALM      30.22F HAZE
$$



USA.gov is the U.S. government's official web portal to all federal, state and local government web resources and services.